[[{"header":{"parameterUnit":"m.s-1","parameterCategory":1,"la1":30.2991,"la2":30.254,"lo1":-89.0895,"lo2":-89.0444,"dy":0.0017,"dx":0.0017,"nx":28,"ny":28,"refTime":"2023-10-25T21:00:00:Z","depth":0,"parameterNumber":2,"parameterNumberName":"U-component_of_WINDS"},"data":[0,0,0,0,0,0,0,0,0,0,0,0,0,0,0,0,0,0,0,0,0,0,0,0,0,0,0,0,0,0,0,0,0,0,0,0,0,0,0,0,0,0,0,0,0,0,0,0,0,0,0,0,0,0,0,0,0,0,-7.8558,-7.8557,0,-7.8483,-7.8482,-7.8481,-7.8328,-7.8324,-7.8321,-7.8318,-7.8242,-7.8243,-7.8244,0,0,0,0,0,0,0,0,0,0,0,0,0,-7.8571,-7.8572,-7.8558,-7.8557,-7.8556,-7.8483,-7.8482,-7.8481,-7.8328,-7.8324,-7.8321,-7.8317,-7.8242,-7.8243,-7.8244,0,0,0,0,0,0,0,0,0,0,0,0,0,-7.8538,-7.8572,-7.8558,-7.8471,-7.8462,-7.8483,-7.8482,-7.8481,-7.8329,-7.8324,-7.832,-7.8315,-7.8241,-7.8243,-7.8244,-7.8344,0,0,-7.8248,-7.8248,0,0,0,0,0,0,0,0,-7.854,-7.8537,-7.8484,-7.8477,-7.8467,-7.841,-7.8459,-7.8435,-7.833,-7.8379,-7.8318,-7.8313,-7.8302,-7.8298,-7.8294,-7.834,-7.8337,-7.8248,-7.8248,-7.8249,-7.8249,0,0,0,0,0,0,0,-7.8542,-7.854,-7.8528,-7.8484,-7.8473,-7.8437,-7.8427,-7.8453,-7.8367,-7.8375,-7.8363,-7.8357,-7.8296,-7.8293,-7.8291,-7.8336,-7.8248,-7.8249,-7.8249,-7.825,-7.8464,-7.8469,0,0,0,0,0,0,-7.8557,-7.8543,-7.853,-7.8526,-7.8493,-7.844,-7.8429,-7.8433,-7.8366,-7.8352,-7.8361,-7.835,-7.8293,-7.8289,-7.8287,-7.84,-7.8249,-7.825,-7.8251,-7.8459,-7.8465,-7.847,0,0,0,0,0,0,-7.8558,-7.8557,-7.8533,-7.8531,-7.8525,-7.8445,-7.845,-7.8434,-7.843,-7.8356,-7.834,-7.8373,-7.8289,-7.8286,-7.8332,-7.8396,-7.8251,-7.8252,-7.8453,-7.8461,-7.8468,-7.8628,0,0,0,0,0,0,-7.8559,-7.8559,-7.8594,-7.8533,-7.8526,-7.8578,-7.8454,-7.8436,-7.8433,-7.8418,-7.8363,-7.835,-7.8285,-7.8331,-7.8333,-7.8395,-7.8253,-7.8447,-7.8457,-7.8465,-7.8616,-7.864,-7.866,0,0,0,0,0,-7.856,-7.8642,-7.8597,-7.8596,-7.8569,-7.8582,-7.8578,-7.8502,-7.8439,-7.8475,-7.8428,-7.8351,-7.839,-7.8337,-7.8338,-7.8401,-7.8442,-7.8454,-7.8465,-7.8606,-7.8635,-7.8659,0,0,0,0,0,0,-7.871,-7.8632,-7.8581,-7.8645,-7.8622,-7.8556,-7.8598,-7.8534,-7.8527,-7.8513,-7.842,-7.841,-7.8468,-7.844,-7.8382,-7.8496,-7.8404,-7.8416,-7.8512,-7.8538,-7.856,-7.8563,-7.8254,0,0,0,0,0,-7.8752,-7.8768,-7.8699,-7.8762,-7.8753,-7.8679,-7.8681,-7.8626,-7.8597,-7.8586,-7.8542,-7.8518,-7.8525,-7.853,-7.8532,-7.8614,-7.86,-7.8658,-7.868,-7.8698,-7.8708,-7.8751,-7.8777,-7.8507,-7.8507,-7.8507,0,0,-7.8835,-7.8795,-7.881,-7.8791,-7.8766,-7.8787,-7.8671,-7.8696,-7.871,-7.859,-7.863,-7.8599,-7.8566,-7.863,-7.8656,-7.8608,-7.8781,-7.8713,-7.8728,-7.8727,-7.8765,-7.8791,-7.8814,-7.8514,-7.8513,-7.8512,0,0,-7.8998,-7.8969,-7.9019,-7.8998,-7.8963,-7.8914,-7.8927,-7.8872,-7.8846,-7.8886,-7.8797,-7.8814,-7.8827,-7.8808,-7.88,-7.8964,-7.8894,-7.8968,-7.9079,-7.9122,-7.9143,-7.9162,-7.922,-7.9242,-7.8979,-7.8979,-7.898,0,-7.9105,-7.9131,-7.9053,-7.9085,-7.908,-7.8976,-7.9027,-7.901,-7.8978,-7.8977,-7.8925,-7.8942,-7.8912,-7.8971,-7.9012,-7.901,-7.9022,-7.897,-7.9147,-7.9164,-7.918,-7.9235,-7.9257,-7.8988,-7.8987,-7.8986,-7.8986,0,-7.9266,-7.9287,-7.9332,-7.9305,-7.9306,-7.9347,-7.9277,-7.9288,-7.9235,-7.9193,-7.9237,-7.9199,-7.9192,-7.9204,-7.9151,-7.9257,-7.9229,-7.9164,-7.9068,-7.9217,-7.9266,-7.9286,-7.9001,-7.8998,-7.8995,-7.8993,0,0,-7.9513,-7.9448,-7.9465,-7.9453,-7.941,-7.9424,-7.9464,-7.9459,-7.947,-7.9454,-7.9485,-7.9502,-7.9443,-7.9434,-7.938,-7.9418,-7.9551,-7.9348,-7.9346,-7.9386,-7.9667,-7.9714,-7.9739,-7.9507,-7.9511,-7.9513,-7.9669,0,-7.9664,-7.9725,-7.9659,-7.9735,-7.9753,-7.9658,-7.9693,-7.9672,-7.9635,-7.9647,-7.9607,-7.962,-7.9541,-7.9536,-7.957,-7.9528,-7.9606,-7.9516,-7.9534,-7.9536,-7.9541,-7.9765,-7.9813,-7.9962,-7.9688,-7.9691,-7.9694,0,-7.9845,-7.9839,-7.9917,-7.9873,-7.9879,-7.991,-7.9903,-7.9916,-7.9891,-7.9862,-7.9857,-7.9793,-7.983,-7.9742,-7.9793,-7.9734,-7.9738,-7.972,-7.9724,-7.9719,-7.962,-7.9764,-8.0007,-8.0029,-7.9723,-7.9721,-7.9719,0,-8.0016,-8.0028,-8.0077,-8.007,-8.002,-8.0045,-8.0026,-7.9997,-8.0,-7.9995,-7.9996,-7.9995,-7.9994,-7.9996,-7.9935,-7.9876,-7.9994,-7.99,-7.9971,-7.9973,-7.9995,-7.9994,-8.024,-8.0005,-8.0005,-8.0004,-8.0004,0,-8.0188,-8.0239,-8.0153,-8.0183,-8.0239,-8.0165,-8.0223,-8.0194,-8.0171,-8.0194,-8.0114,-8.0138,-8.0057,-8.0073,-8.0027,-8.0076,-8.0077,-8.0055,-8.0041,-8.006,-8.0063,-8.0059,-8.0046,-8.001,-8.0009,-8.0008,-8.0007,0,-8.0385,-8.033,-8.0377,-8.0329,-8.0318,-8.0362,-8.032,-8.0347,-8.0308,-8.034,-8.0343,-8.0282,-8.0298,-8.0239,-8.0244,-8.0213,-8.0287,-8.0257,-8.0294,-8.0284,-8.0358,-8.0351,-8.0607,-8.0636,-8.0386,-8.0388,-8.039,0,-8.0496,-8.0534,-8.0492,-8.0502,-8.0488,-8.0506,-8.0509,-8.0441,-8.0448,-8.0427,-8.0456,-8.0466,-8.0469,-8.05,-8.0456,-8.0461,-8.043,-8.052,-8.0429,-8.0449,-8.0429,-8.0426,-8.043,-8.0537,-8.054,-8.0542,-8.0544,0,-8.07,-8.0672,-8.068,-8.0681,-8.0688,-8.0685,-8.0676,-8.069,-8.0617,-8.063,-8.0646,-8.0649,-8.0657,-8.0668,-8.0665,-8.0646,-8.0584,-8.0575,-8.0591,-8.0608,-8.0627,-8.0617,-8.0342,-8.0567,-8.0565,-8.0563,-8.0562,-8.0561,-8.0855,-8.0886,-8.0861,-8.0875,-8.0862,-8.0858,-8.0881,-8.0848,-8.086,-8.086,-8.0821,-8.0846,-8.0825,-8.0815,-8.0804,-8.0823,-8.0781,-8.0805,-8.081,-8.0817,-8.0829,-8.0629,-8.0823,-8.0822,-8.0821,-8.0821,-8.082,0,-8.1053,-8.1034,-8.1048,-8.104,-8.1052,-8.0996,-8.0985,-8.0998,-8.1021,-8.1008,-8.1015,-8.1035,-8.1047,-8.1008,-8.1015,-8.1038,-8.101,-8.1042,-8.1038,-8.1035,-8.0866,-8.0851,-8.1065,-8.1065,-8.1065,-8.1065,-8.1065,-8.1065,-8.1156,-8.1205,-8.1176,-8.1219,-8.12,-8.1224,-8.1223,-8.122,-8.1209,-8.1236,-8.1246,-8.1221,-8.1199,-8.1204,-8.1214,-8.1202,-8.1207,-8.1249,-8.1228,-8.107,-8.1046,-8.1023,-8.1008,-8.1252,-8.1252,-8.1394,-8.1395,-8.1396]},{"header":{"parameterUnit":"m.s-1","parameterCategory":1,"la1":30.2991,"la2":30.254,"lo1":-89.0895,"lo2":-89.0444,"dy":0.0017,"dx":0.0017,"nx":28,"ny":28,"refTime":"2023-10-25T21:00:00:Z","depth":0,"parameterNumber":3,"parameterNumberName":"V-component_of_WINDS"},"data":[0,0,0,0,0,0,0,0,0,0,0,0,0,0,0,0,0,0,0,0,0,0,0,0,0,0,0,0,0,0,0,0,0,0,0,0,0,0,0,0,0,0,0,0,0,0,0,0,0,0,0,0,0,0,0,0,0,0,1.6164,1.6164,0,1.6168,1.6168,1.6168,1.6265,1.6268,1.6271,1.6273,1.6268,1.6265,1.6263,0,0,0,0,0,0,0,0,0,0,0,0,0,1.6235,1.6233,1.6164,1.6164,1.6165,1.6168,1.6168,1.6168,1.6265,1.6268,1.6271,1.6274,1.6269,1.6266,1.6263,0,0,0,0,0,0,0,0,0,0,0,0,0,1.6218,1.6232,1.6164,1.6213,1.6218,1.6168,1.6168,1.6168,1.6264,1.6268,1.6272,1.6276,1.627,1.6266,1.6262,1.6163,0,0,1.6251,1.6249,0,0,0,0,0,0,0,0,1.6218,1.6215,1.6206,1.621,1.6215,1.6221,1.6192,1.6166,1.6263,1.6246,1.6273,1.6277,1.6248,1.6247,1.6239,1.6163,1.6163,1.6251,1.6248,1.6247,1.6246,0,0,0,0,0,0,0,1.6219,1.6215,1.6166,1.6206,1.6211,1.6233,1.6235,1.6187,1.6226,1.6248,1.6255,1.6255,1.6251,1.6242,1.6239,1.6163,1.6251,1.6247,1.6245,1.6244,1.6009,1.6005,0,0,0,0,0,0,1.6215,1.6216,1.6166,1.6166,1.6226,1.6229,1.6231,1.6215,1.6227,1.6232,1.6252,1.6259,1.6247,1.6244,1.624,1.6126,1.6247,1.6243,1.6241,1.6013,1.6008,1.6004,0,0,0,0,0,0,1.6216,1.621,1.6165,1.6193,1.6189,1.6224,1.6205,1.6213,1.6204,1.623,1.6236,1.6235,1.625,1.6245,1.6183,1.6127,1.6242,1.6238,1.6018,1.6011,1.6006,1.5897,0,0,0,0,0,0,1.6218,1.6209,1.6173,1.6191,1.6187,1.611,1.6201,1.621,1.6198,1.6208,1.6216,1.6221,1.6252,1.6188,1.6179,1.6124,1.6235,1.6023,1.6015,1.6008,1.5905,1.5888,1.5872,0,0,0,0,0,1.622,1.614,1.6171,1.6164,1.6143,1.6107,1.6104,1.6144,1.6193,1.6156,1.6174,1.6221,1.6135,1.6181,1.6172,1.6114,1.6026,1.6017,1.6008,1.5913,1.5891,1.5873,0,0,0,0,0,0,1.611,1.6143,1.6178,1.6102,1.6101,1.6123,1.6078,1.612,1.6103,1.6112,1.6161,1.6162,1.6092,1.6097,1.6148,1.6021,1.6089,1.6078,1.6019,1.5999,1.5983,1.5982,1.6232,0,0,0,0,0,1.6078,1.6048,1.6077,1.6007,1.6005,1.6042,1.6027,1.6059,1.6059,1.6058,1.6071,1.6067,1.604,1.602,1.5996,1.5908,1.5911,1.5864,1.5848,1.5834,1.5823,1.5778,1.5758,1.5974,1.5974,1.5975,0,0,1.6008,1.6023,1.6,1.5985,1.5989,1.5955,1.604,1.6,1.5975,1.6051,1.5994,1.6004,1.6003,1.5928,1.5895,1.593,1.5764,1.5823,1.5811,1.5808,1.5766,1.5746,1.5728,1.5968,1.5969,1.597,0,0,1.5866,1.5874,1.5818,1.5821,1.5827,1.5852,1.5838,1.5855,1.5865,1.581,1.5867,1.5837,1.5789,1.5787,1.5779,1.564,1.5683,1.5631,1.5544,1.55,1.5482,1.5468,1.5418,1.54,1.562,1.562,1.562,0,1.5779,1.5733,1.5782,1.574,1.5732,1.5804,1.5747,1.5746,1.5742,1.5733,1.5774,1.5717,1.5721,1.5647,1.5614,1.5605,1.5591,1.5629,1.5482,1.5467,1.5454,1.5407,1.5388,1.5614,1.5614,1.5615,1.5616,0,1.5626,1.5593,1.5546,1.5545,1.5532,1.5481,1.5523,1.5503,1.5537,1.5558,1.5501,1.551,1.549,1.5475,1.5505,1.5406,1.5427,1.5474,1.5543,1.5426,1.5383,1.5365,1.5605,1.5607,1.5609,1.561,0,0,1.541,1.5441,1.5423,1.5424,1.5438,1.5412,1.5366,1.535,1.5332,1.5328,1.529,1.5249,1.5294,1.5285,1.5317,1.5278,1.5168,1.533,1.533,1.5299,1.5059,1.5023,1.5002,1.5198,1.5195,1.5192,1.5059,0,1.5273,1.5198,1.5243,1.516,1.5131,1.5201,1.516,1.5163,1.5182,1.5159,1.5179,1.515,1.521,1.5206,1.5171,1.5189,1.5121,1.52,1.5161,1.5159,1.5158,1.4979,1.494,1.4814,1.5042,1.504,1.5038,0,1.5101,1.5094,1.501,1.5032,1.5021,1.4984,1.4975,1.4952,1.4957,1.4974,1.4966,1.5009,1.4964,1.5034,1.4973,1.5025,1.5013,1.5019,1.5016,1.5012,1.509,1.4969,1.4775,1.4755,1.5012,1.5014,1.5015,0,1.4953,1.4922,1.4868,1.4867,1.4891,1.4864,1.4872,1.4882,1.487,1.4861,1.4854,1.4839,1.483,1.4817,1.4853,1.4902,1.4786,1.486,1.4797,1.4796,1.4768,1.4769,1.4567,1.4762,1.4762,1.4762,1.4763,0,1.4794,1.4739,1.4802,1.4768,1.471,1.4762,1.4702,1.4717,1.4726,1.4695,1.4754,1.4724,1.4775,1.475,1.4778,1.4723,1.4718,1.4729,1.4737,1.4723,1.4722,1.4714,1.4723,1.4757,1.4758,1.4759,1.476,0,1.4617,1.4657,1.4603,1.4632,1.4638,1.4593,1.4618,1.4587,1.4612,1.4573,1.4567,1.4604,1.4578,1.4615,1.4591,1.461,1.4534,1.4556,1.4533,1.4539,1.4474,1.448,1.4259,1.4233,1.4445,1.4443,1.4441,0,1.4512,1.4472,1.4499,1.4485,1.4491,1.4466,1.4457,1.4507,1.4494,1.4499,1.4468,1.4447,1.4434,1.4388,1.4412,1.4394,1.4415,1.4339,1.4412,1.4401,1.4413,1.4415,1.4411,1.4323,1.4321,1.4319,1.4317,0,1.4322,1.4345,1.433,1.4322,1.431,1.4305,1.4304,1.4289,1.4342,1.4324,1.43,1.429,1.4268,1.4247,1.4236,1.4243,1.4288,1.4295,1.4279,1.4263,1.4252,1.4257,1.4491,1.4299,1.43,1.4302,1.4303,1.4303,1.4178,1.4146,1.4161,1.4143,1.4149,1.4148,1.4122,1.4146,1.4127,1.4116,1.4147,1.4115,1.4123,1.4115,1.4117,1.4092,1.4124,1.4102,1.4096,1.4089,1.4079,1.4258,1.409,1.409,1.4091,1.4092,1.4092,0,1.399,1.4005,1.3988,1.3988,1.3973,1.4022,1.4024,1.4008,1.3981,1.3986,1.3973,1.3946,1.3926,1.395,1.3935,1.391,1.3931,1.3904,1.3906,1.3907,1.4051,1.4066,1.3888,1.3888,1.3888,1.3888,1.3888,1.3888,1.3891,1.3842,1.3867,1.3821,1.3835,1.3807,1.3805,1.3804,1.3809,1.3777,1.3763,1.378,1.3793,1.378,1.3763,1.3771,1.3762,1.3728,1.3742,1.3876,1.3896,1.3915,1.3929,1.3726,1.3726,1.36,1.3599,1.3598]}]]